Location: Appeville
(49.3218°N, 1.3427°W)
Time: 23:53:25
(UTC+00:00)

Nadezhda 4 Rocket - Pass Details

Date: 08 December 2019
Orbit: 949 x 993 km, 82.9° (Epoch: 24 January)

Event Time Altitude Azimuth Distance (km) Brightness Sun altitude
Exits shadow 04:59:12 16° 349° (N) 2,319 5.8 -26.3°
Maximum altitude 05:04:21 83° 263° (W) 980 3.8 -25.4°
Drops below altitude 10° 05:10:30 10° 176° (S) 2,686 6.4 -24.4°
Sets 05:12:58 0° 176° (S) 3,623 7.1 -24.0°
